TimeEST,TemperatureF,Dew PointF,Humidity,Sea Level PressureIn,VisibilityMPH,Wind Direction,Wind SpeedMPH,Gust SpeedMPH,PrecipitationIn,Events,Conditions,WindDirDegrees,DateUTC
12:51 AM,27.1,23.0,84,29.98,10.0,North,-9999.0,-,N/A,,Clear,0,2013-01-07 05:51:00
1:51 AM,24.1,21.0,88,30.01,9.0,North,-9999.0,-,N/A,,Clear,0,2013-01-07 06:51:00
2:51 AM,24.1,22.1,92,30.02,9.0,North,-9999.0,-,N/A,,Clear,0,2013-01-07 07:51:00
3:51 AM,20.1,17.1,88,30.03,10.0,North,-9999.0,-,N/A,,Clear,0,2013-01-07 08:51:00
4:51 AM,20.1,18.1,92,30.05,10.0,North,-9999.0,-,N/A,,Mostly Cloudy,0,2013-01-07 09:51:00
5:51 AM,23.0,20.1,89,30.09,10.0,North,-9999.0,-,N/A,,Mostly Cloudy,0,2013-01-07 10:51:00
6:51 AM,23.0,20.1,89,30.13,10.0,North,-9999.0,-,N/A,,Clear,0,2013-01-07 11:51:00
7:26 AM,19.4,17.6,93,30.14,9.0,North,-9999.0,-,N/A,,Mostly Cloudy,0,2013-01-07 12:26:00
7:51 AM,23.0,19.0,85,30.17,10.0,North,-9999.0,-,N/A,,Mostly Cloudy,0,2013-01-07 12:51:00
8:51 AM,34.0,21.0,59,30.23,10.0,North,-9999.0,-,N/A,,Clear,0,2013-01-07 13:51:00
9:51 AM,32.9,20.1,59,30.29,10.0,North,-9999.0,-,N/A,,Clear,0,2013-01-07 14:51:00
10:51 AM,32.9,18.1,55,30.29,10.0,NNW,9.2,20.7,N/A,,Clear,340,2013-01-07 15:51:00
11:51 AM,32.9,18.1,55,30.31,10.0,NNW,25.3,-,N/A,,Clear,330,2013-01-07 16:51:00
12:51 PM,34.0,16.2,48,30.32,10.0,NNW,17.3,26.5,N/A,,Clear,330,2013-01-07 17:51:00
1:51 PM,34.0,14.0,44,30.34,10.0,Variable,3.5,-,N/A,,Clear,0,2013-01-07 18:51:00
2:51 PM,34.0,12.0,40,30.36,10.0,NW,8.1,-,N/A,,Clear,310,2013-01-07 19:51:00
3:51 PM,34.0,10.0,37,30.38,10.0,NW,6.9,-,N/A,,Clear,320,2013-01-07 20:51:00
4:51 PM,28.0,13.1,54,30.39,10.0,Calm,Calm,-,N/A,,Clear,0,2013-01-07 21:51:00
5:51 PM,24.1,12.0,60,30.40,10.0,NNW,16.1,-,N/A,,Clear,330,2013-01-07 22:51:00
6:51 PM,21.0,13.1,71,30.40,10.0,Calm,Calm,-,N/A,,Clear,0,2013-01-07 23:51:00
7:51 PM,19.0,12.0,74,30.40,10.0,Calm,Calm,-,N/A,,Clear,0,2013-01-08 00:51:00
8:51 PM,18.1,11.1,74,30.40,10.0,Calm,Calm,-,N/A,,Clear,0,2013-01-08 01:51:00
9:51 PM,16.2,11.1,81,30.40,10.0,Calm,Calm,-,N/A,,Clear,0,2013-01-08 02:51:00
10:51 PM,14.0,9.1,81,30.38,10.0,Calm,Calm,-,N/A,,Clear,0,2013-01-08 03:51:00
11:51 PM,13.1,8.1,80,30.38,10.0,Calm,Calm,-,N/A,,Clear,0,2013-01-08 04:51:00